Location: Prague
(50.0830°N, 14.4670°E)
Time: 18:27:31
(UTC+01:00)

O/OREOS (USA 219) - Pass Details

Date: 10 December 2021
Orbit: 621 x 646 km, 72.0° (Epoch: 22 May)

Event Time Altitude Azimuth Distance (km) Brightness Sun altitude
Rises 18:39:55 0° 336° (NNW) 2,956 ? -24.5°
Reaches altitude 10° 18:42:19 10° 344° (NNW) 2,046 ? -24.8°
Enters shadow 18:43:53 20° 354° (N) 1,496 ? -25.1°
